Clinton, MO

10:56 PM CST on November 19, 2017 (GMT -0600)
Clinton Memorial

Weather History for KGLY - November, 2013

Change the Weather History Date:

Friday, November 1, 2013

  Actual Average (KSZL) Record (KSZL)
Temperature  
Mean Temperature 52 °F -  
Max Temperature 62 °F 58 °F 80 °F (2016)
Min Temperature 42 °F 41 °F 23 °F (2014)
Degree Days  
Heating Degree Days 13    
Growing Degree Days 2 (Base 50)    
Moisture  
Dew Point 42 °F    
Average Humidity 73    
Maximum Humidity 93    
Minimum Humidity 48    
Precipitation  
Precipitation 0.00 in - - ()
Sea Level Pressure  
Sea Level Pressure 29.81 in    
Wind  
Wind Speed 7 mph (West)    
Max Wind Speed 14 mph    
Max Gust Speed 20 mph    
Visibility 10 miles    
Events      
Averages and records for this station are not official NWS values.
T = Trace of Precipitation, MM = Missing Value Source: NWS Daily Summary

Daily Weather History Graph

Daily Weather History Graph

Search for Another Location

Airport or City:

Trip Planner

Search our weather history database for the weather conditions in past years. The results will help you decide how hot, cold, wet, or windy it might be!

Date:

Astronomy

Nov. 01, 2013 Rise Set
Actual Time 7:41 AM CDT 6:14 PM CDT
Civil Twilight 7:13 AM CDT 6:42 PM CDT
Nautical Twilight 6:42 AM CDT 7:13 PM CDT
Astronomical Twilight 6:11 AM CDT 7:44 PM CDT
Moon 5:35 AM CDT (11/1) 5:07 PM CDT (11/1)
Length of Visible Light 11h 28m
Length of Day
10h 33m
Waning Crescent, 4% of the Moon is Illuminated
Nov 1
Waning Crescent
Nov 3
New
Nov 9
First Quarter
Nov 17
Full
Nov 25
Last Quarter

Hourly Weather History & Observations

Time (CDT) Temp. Windchill Dew Point Humidity Pressure Visibility Wind Dir Wind Speed Gust Speed Precip Events Conditions
12:15 AM 48.2 °F - 46.4 °F 93% 29.68 in 10.0 mi SW 8.1 mph - N/A   Clear
12:35 AM 48.2 °F - 46.4 °F 93% 29.68 in 10.0 mi SW 8.1 mph - N/A   Clear
12:55 AM 48.2 °F - 46.4 °F 93% 29.69 in 10.0 mi SW 8.1 mph - N/A   Clear
1:15 AM 48.2 °F - 46.4 °F 93% 29.69 in 10.0 mi SW 8.1 mph - N/A   Clear
1:35 AM 48.2 °F - 44.6 °F 87% 29.70 in 10.0 mi SW 9.2 mph - N/A   Clear
1:55 AM 48.2 °F - 44.6 °F 87% 29.70 in 10.0 mi WSW 8.1 mph - N/A   Clear
2:15 AM 48.2 °F - 44.6 °F 87% 29.70 in 10.0 mi WSW 5.8 mph - N/A   Clear
2:35 AM 46.4 °F 44.3 °F 44.6 °F 93% 29.70 in 10.0 mi WSW 4.6 mph - N/A   Clear
2:55 AM 46.4 °F 44.3 °F 44.6 °F 93% 29.70 in 10.0 mi WSW 4.6 mph - N/A   Clear
3:15 AM 46.4 °F 42.9 °F 44.6 °F 93% 29.71 in 10.0 mi SW 6.9 mph - N/A   Clear
3:35 AM 46.4 °F 43.5 °F 44.6 °F 93% 29.71 in 10.0 mi SW 5.8 mph - N/A   Clear
3:55 AM 46.4 °F 42.9 °F 44.6 °F 93% 29.71 in 10.0 mi SW 6.9 mph - N/A   Clear
4:15 AM 46.4 °F 42.9 °F 44.6 °F 93% 29.71 in 10.0 mi SW 6.9 mph - N/A   Clear
4:55 AM 44.6 °F 41.4 °F 42.8 °F 93% 29.71 in 10.0 mi WSW 5.8 mph - N/A   Clear
5:15 AM 44.6 °F 41.4 °F 42.8 °F 93% 29.71 in 10.0 mi WSW 5.8 mph - N/A   Clear
5:35 AM 44.6 °F 41.4 °F 42.8 °F 93% 29.72 in 10.0 mi WSW 5.8 mph - N/A   Clear
5:55 AM 44.6 °F 40.7 °F 41.0 °F 87% 29.73 in 10.0 mi WSW 6.9 mph - N/A   Clear
6:15 AM 44.6 °F 41.4 °F 41.0 °F 87% 29.73 in 10.0 mi WSW 5.8 mph - N/A   Clear
6:35 AM 42.8 °F 39.3 °F 41.0 °F 93% 29.74 in 10.0 mi WSW 5.8 mph - N/A   Clear
6:55 AM 42.8 °F 39.3 °F 39.2 °F 87% 29.75 in 10.0 mi WSW 5.8 mph - N/A   Clear
7:15 AM 42.8 °F 38.6 °F 39.2 °F 87% 29.76 in 10.0 mi WSW 6.9 mph - N/A   Clear
7:35 AM 42.8 °F 38.6 °F 39.2 °F 87% 29.76 in 10.0 mi WSW 6.9 mph - N/A   Clear
7:55 AM 42.8 °F 39.3 °F 39.2 °F 87% 29.76 in 10.0 mi WSW 5.8 mph - N/A   Clear
8:15 AM 44.6 °F 41.4 °F 41.0 °F 87% 29.77 in 10.0 mi WSW 5.8 mph - N/A   Clear
8:35 AM 46.4 °F 42.9 °F 41.0 °F 81% 29.78 in 10.0 mi WSW 6.9 mph - N/A   Clear
8:55 AM 46.4 °F 42.9 °F 42.8 °F 87% 29.80 in 10.0 mi WSW 6.9 mph - N/A   Clear
9:15 AM 48.2 °F - 42.8 °F 82% 29.80 in 10.0 mi WSW 8.1 mph - N/A   Clear
9:35 AM 50.0 °F - 42.8 °F 76% 29.81 in 10.0 mi WSW 6.9 mph - N/A   Clear
9:55 AM 51.8 °F - 44.6 °F 76% 29.81 in 10.0 mi West 6.9 mph - N/A   Clear
10:15 AM 53.6 °F - 44.6 °F 72% 29.82 in 10.0 mi West 8.1 mph - N/A   Clear
10:35 AM 55.4 °F - 44.6 °F 67% 29.81 in 10.0 mi West 11.5 mph - N/A   Clear
10:55 AM 57.2 °F - 44.6 °F 63% 29.81 in 10.0 mi West 8.1 mph - N/A   Clear
11:15 AM 57.2 °F - 42.8 °F 59% 29.82 in 10.0 mi WNW 10.4 mph 16.1 mph N/A   Clear
11:35 AM 57.2 °F - 42.8 °F 59% 29.83 in 10.0 mi WNW 13.8 mph 19.6 mph N/A   Clear
11:55 AM 59.0 °F - 42.8 °F 55% 29.84 in 10.0 mi West 11.5 mph 16.1 mph N/A   Clear
12:15 PM 59.0 °F - 42.8 °F 55% 29.84 in 10.0 mi West 11.5 mph - N/A   Clear
12:35 PM 59.0 °F - 42.8 °F 55% 29.84 in 10.0 mi West 10.4 mph - N/A   Scattered Clouds
12:55 PM 60.8 °F - 42.8 °F 52% 29.84 in 10.0 mi WNW 9.2 mph - N/A   Scattered Clouds
1:15 PM 57.2 °F - 41.0 °F 55% 29.83 in 10.0 mi WNW 11.5 mph 16.1 mph N/A   Partly Cloudy
1:35 PM 57.2 °F - 41.0 °F 55% 29.83 in 10.0 mi WNW 9.2 mph - N/A   Scattered Clouds
1:55 PM 59.0 °F - 42.8 °F 55% 29.82 in 10.0 mi WNW 11.5 mph 16.1 mph N/A   Partly Cloudy
2:15 PM 60.8 °F - 41.0 °F 48% 29.82 in 10.0 mi NW 10.4 mph 18.4 mph N/A   Scattered Clouds
2:35 PM 60.8 °F - 42.8 °F 52% 29.82 in 10.0 mi NW 9.2 mph - N/A   Partly Cloudy
2:55 PM 62.6 °F - 42.8 °F 48% 29.82 in 10.0 mi West 9.2 mph - N/A   Clear
3:15 PM 62.6 °F - 42.8 °F 48% 29.82 in 10.0 mi NW 11.5 mph - N/A   Clear
5:15 PM 59.0 °F - 39.2 °F 48% 29.86 in 10.0 mi WNW 11.5 mph 18.4 mph N/A   Mostly Cloudy
5:35 PM 57.2 °F - 39.2 °F 51% 29.86 in 10.0 mi WNW 9.2 mph - N/A   Partly Cloudy
5:55 PM 57.2 °F - 39.2 °F 51% 29.87 in 10.0 mi WNW 9.2 mph - N/A   Mostly Cloudy
6:15 PM 57.2 °F - 39.2 °F 51% 29.88 in 10.0 mi WNW 6.9 mph - N/A   Mostly Cloudy
6:35 PM 53.6 °F - 39.2 °F 58% 29.88 in 10.0 mi Calm Calm - N/A   Partly Cloudy
6:55 PM 51.8 °F - 37.4 °F 58% 29.89 in 10.0 mi West 4.6 mph - N/A   Clear
7:15 PM 51.8 °F - 37.4 °F 58% 29.90 in 10.0 mi WNW 4.6 mph - N/A   Clear
7:35 PM 48.2 °F - 39.2 °F 71% 29.91 in 10.0 mi West 4.6 mph - N/A   Clear
7:55 PM 51.8 °F - 37.4 °F 58% 29.91 in 10.0 mi Calm Calm - N/A   Clear
8:15 PM 51.8 °F - 39.2 °F 62% 29.91 in 10.0 mi Calm Calm - N/A   Clear
8:35 PM 48.2 °F - 39.2 °F 71% 29.91 in 10.0 mi Calm Calm - N/A   Clear
8:55 PM 46.4 °F - 37.4 °F 71% 29.92 in 10.0 mi Calm Calm - N/A   Clear
9:15 PM 46.4 °F 43.5 °F 39.2 °F 76% 29.92 in 10.0 mi West 5.8 mph - N/A   Clear
9:35 PM 46.4 °F 43.5 °F 39.2 °F 76% 29.93 in 10.0 mi West 5.8 mph - N/A   Clear
9:55 PM 46.4 °F 43.5 °F 39.2 °F 76% 29.93 in 10.0 mi WSW 5.8 mph - N/A   Mostly Cloudy
10:15 PM 48.2 °F - 39.2 °F 71% 29.95 in 10.0 mi West 13.8 mph 17.3 mph N/A   Scattered Clouds
10:35 PM 51.8 °F - 39.2 °F 62% 29.96 in 10.0 mi WNW 10.4 mph - N/A   Clear
10:55 PM 48.2 °F - 39.2 °F 71% 29.96 in 10.0 mi WNW 6.9 mph - N/A   Clear
11:15 PM 48.2 °F - 39.2 °F 71% 29.97 in 10.0 mi Calm Calm - N/A   Clear
11:35 PM 46.4 °F - 39.2 °F 76% 29.97 in 10.0 mi Calm Calm - N/A   Clear
11:55 PM 44.6 °F 42.2 °F 39.2 °F 81% 29.97 in 10.0 mi West 4.6 mph - N/A   Clear